Regional Weather Roundup
Issued by NWS Glasgow, MT

Home | Current Version | Previous Version | Text Only | Print | Product List | Glossary On
Versions: 1 2 3 4 5 6 7 8 9 10 11 12 13 14 15 16 17 18 19 20 21 22 23 24 25 26 27 28 29 30 31 32 33 34 35 36 37 38 39 40 41 42 43 44 45 46 47 48 49 50
000
ASUS45 KGGW 240915
RWRGGW
HOURLY REGIONAL WEATHER ROUNDUP FOR NORTHEAST MONTANA
NATIONAL WEATHER SERVICE GLASGOW MONTANA
300 AM MDT SUN SEP 24 2017

NOTE: "FAIR" INDICATES FEW OR NO CLOUDS BELOW 12,000 FEET WITH NO
SIGNIFICANT WEATHER AND/OR OBSTRUCTIONS TO VISISBILITY.

NORTHEAST MONTANA


CITY           SKY/WX    TMP DP  RH WIND       PRES   REMARKS
GLASGOW        CLOUDY    47  40  76 E5        30.11R
WOLF POINT     CLOUDY    46  43  89 CALM      30.13R
JORDAN           N/A     43  40  89 CALM      30.12R
WINNETT          N/A     32  32 100 CALM        N/A
SIDNEY         LGT RAIN  44  43  96 N7        30.11R
GLENDIVE       LGT RAIN  43  41  93 N9        30.10F
SCOBEY           N/A     43  35  73 CALM      30.09F

FORT PECK REPORTS


CITY           SKY/WX    TMP DP  RH WIND       PRES   REMARKS
FORT PECK        N/A     47  38  71 E5          N/A
THE PINES        N/A     48  38  68 SE3         N/A

SOUTHEAST MONTANA


CITY           SKY/WX    TMP DP  RH WIND       PRES   REMARKS
BILLINGS       MOCLDY    42  39  89 N5        30.10S
MILES CITY     LGT RAIN  43  41  93 N6        30.10S
BAKER          CLOUDY    43  40  89 N8        30.08S
LIVINGSTON     CLOUDY    39  35  86 CALM      30.09S

CENTRAL MONTANA


CITY           SKY/WX    TMP DP  RH WIND       PRES   REMARKS
HAVRE          CLOUDY    41  38  89 CALM      30.10R
LEWISTOWN      CLOUDY    38  38 100 CALM      30.10S
GREAT FALLS    CLOUDY    35  31  85 SW7       30.10R
CUT BANK       CLEAR     32  28  85 NW7       30.09R
HELENA         CLEAR     37  32  82 CALM      30.11R
BUTTE          CLOUDY    33  30  88 SE3       30.12S
BOZEMAN        CLOUDY    41  37  86 SE6       30.10S

WESTERN MONTANA


CITY           SKY/WX    TMP DP  RH WIND       PRES   REMARKS
MISSOULA       CLEAR     35  32  88 CALM      30.14S
KALISPELL      NOT AVBL

NORTH DAKOTA


CITY           SKY/WX    TMP DP  RH WIND       PRES   REMARKS
WILLISTON      LGT RAIN  45  42  89 NW7       30.11F
DICKINSON      LGT RAIN  44  44 100 N10       30.03R
MINOT          LGT RAIN  47  46  97 N10       30.04F
BISMARCK       LGT RAIN  49  48  97 N12       29.99F

SOUTHERN SASKATCHEWAN


CITY           SKY/WX    TMP DP  RH WIND       PRES   REMARKS
REGINA         CLOUDY    37  36  93 N2        30.13F
ESTEVAN        CLOUDY    43  43 100 NW5       30.12F
SWIFT CURRENT    N/A     37  36  93 S8        30.11S




USA.gov is the U.S. government's official web portal to all federal, state and local government web resources and services.